EWG8HM EDDH-EFHK

Flight info

Callsign EWG8HM
Flight time 1h 38m
Altitude 35000
Route LUGEG3G LUGEG P605 GESKA DCT EKRAL DCT ALAMI DCT OKEVU DCT EVADI Y370 DIVAM
Aircraft A321/M-SDE3FGHIRWY/LB1

Departure

Time 2026-05-07 17:28
Airport Hamburg Helmut Schmidt Airport (EDDH)

Arrival

Time 2026-05-07 19:07
Airport Helsinki Vantaa Airport (EFHK)
Time Latitude Longitude Altitude Speed Heading
2026-05-07 16:31 53.63292 10.00351 48 ft 0 kts 87°
2026-05-07 16:31 53.63292 10.00355 49 ft 0 kts 87°
2026-05-07 17:15 53.63292 10.00354 48 ft 0 kts 87°
2026-05-07 17:18 53.63292 10.00342 48 ft 4 kts 87°
2026-05-07 17:19 53.63290 10.00297 48 ft 4 kts 87°
2026-05-07 17:19 53.63289 10.00254 48 ft 2 kts 87°
2026-05-07 17:19 53.63290 10.00215 48 ft 4 kts 105°
2026-05-07 17:19 53.63301 10.00178 43 ft 4 kts 145°
2026-05-07 17:20 53.63315 10.00167 45 ft 0 kts 176°
2026-05-07 17:24 53.63314 10.00167 48 ft 1 kts 176°
2026-05-07 17:24 53.63304 10.00168 46 ft 2 kts 176°
2026-05-07 17:24 53.63275 10.00172 48 ft 6 kts 176°
2026-05-07 17:25 53.63222 10.00178 48 ft 9 kts 176°
2026-05-07 17:25 53.63151 10.00188 48 ft 11 kts 175°
2026-05-07 17:25 53.63072 10.00186 48 ft 11 kts 199°
2026-05-07 17:25 53.63011 10.00122 48 ft 9 kts 213°
2026-05-07 17:26 53.62960 10.00065 48 ft 5 kts 214°
2026-05-07 17:26 53.62937 10.00035 48 ft 4 kts 223°
2026-05-07 17:26 53.62920 9.99992 48 ft 5 kts 243°
2026-05-07 17:26 53.62904 9.99933 47 ft 7 kts 242°
2026-05-07 17:27 53.62876 9.99849 46 ft 10 kts 241°
2026-05-07 17:27 53.62876 9.99742 45 ft 10 kts 323°
2026-05-07 17:27 53.62904 9.99713 45 ft 0 kts 332°
2026-05-07 17:27 53.62908 9.99710 45 ft 3 kts 332°
2026-05-07 17:28 53.63054 9.99584 46 ft 57 kts 333°
2026-05-07 17:28 53.63615 9.99099 48 ft 122 kts 333°
2026-05-07 17:28 53.64530 9.98304 92 ft 168 kts 335°
2026-05-07 17:28 53.65537 9.97423 760 ft 164 kts 337°
2026-05-07 17:29 53.66584 9.96569 1465 ft 169 kts 338°
2026-05-07 17:29 53.67631 9.95701 2162 ft 168 kts 339°
2026-05-07 17:29 53.68696 9.94815 2700 ft 172 kts 341°
2026-05-07 17:29 53.69855 9.94586 3253 ft 167 kts 11°
2026-05-07 17:30 53.71061 9.94774 3614 ft 183 kts
2026-05-07 17:30 53.72390 9.94808 3925 ft 198 kts
2026-05-07 17:30 53.73733 9.95410 4179 ft 206 kts 37°
2026-05-07 17:30 53.74646 9.97299 4385 ft 219 kts 64°
2026-05-07 17:31 53.75321 9.99750 4635 ft 241 kts 68°
2026-05-07 17:31 53.75980 10.02439 5130 ft 252 kts 69°
2026-05-07 17:31 53.76665 10.05205 5800 ft 256 kts 67°
2026-05-07 17:31 53.77379 10.07982 6482 ft 260 kts 66°
2026-05-07 17:32 53.78127 10.10827 7068 ft 267 kts 66°
2026-05-07 17:32 53.78896 10.13676 7624 ft 273 kts 65°
2026-05-07 17:32 53.79706 10.16615 8254 ft 277 kts 65°
2026-05-07 17:32 53.80259 10.18563 8687 ft 279 kts 64°
2026-05-07 17:33 53.81421 10.22531 9574 ft 282 kts 63°
2026-05-07 17:33 53.82311 10.25539 10001 ft 290 kts 63°
2026-05-07 17:33 53.83197 10.28540 10079 ft 290 kts 63°
2026-05-07 17:34 53.84945 10.34549 10202 ft 330 kts 64°
2026-05-07 17:34 53.85961 10.38092 10448 ft 343 kts 63°
2026-05-07 17:34 53.87011 10.41774 10928 ft 349 kts 64°
2026-05-07 17:34 53.88066 10.45499 11457 ft 352 kts 64°
2026-05-07 17:35 53.89136 10.49273 11981 ft 356 kts 64°
2026-05-07 17:35 53.90212 10.53068 12522 ft 359 kts 64°
2026-05-07 17:35 53.91302 10.56917 13062 ft 362 kts 64°
2026-05-07 17:35 53.92397 10.60795 13588 ft 366 kts 64°
2026-05-07 17:36 53.93516 10.64692 14095 ft 369 kts 61°
2026-05-07 17:36 53.94932 10.68276 14532 ft 372 kts 50°
2026-05-07 17:36 53.96692 10.71527 15017 ft 374 kts 46°
2026-05-07 17:36 53.98484 10.74754 15484 ft 377 kts 46°
2026-05-07 17:37 54.00287 10.78015 15938 ft 380 kts 46°
2026-05-07 17:37 54.02103 10.81316 16428 ft 382 kts 46°
2026-05-07 17:37 54.03927 10.84649 16892 ft 385 kts 46°
2026-05-07 17:37 54.05756 10.88006 17378 ft 388 kts 46°
2026-05-07 17:38 54.07600 10.91399 17830 ft 391 kts 47°
2026-05-07 17:38 54.09451 10.94805 18296 ft 393 kts 46°
2026-05-07 17:38 54.11299 10.98194 18682 ft 396 kts 46°
2026-05-07 17:38 54.13181 11.01646 19046 ft 398 kts 46°
2026-05-07 17:39 54.15077 11.05140 19430 ft 401 kts 46°
2026-05-07 17:39 54.16977 11.08662 19783 ft 404 kts 47°
2026-05-07 17:39 54.18876 11.12205 20167 ft 406 kts 46°
2026-05-07 17:39 54.20785 11.15776 20528 ft 408 kts 46°
2026-05-07 17:40 54.22709 11.19372 20900 ft 410 kts 47°
2026-05-07 17:40 54.24618 11.22941 21258 ft 412 kts 46°
2026-05-07 17:40 54.26561 11.26576 21636 ft 414 kts 47°
2026-05-07 17:40 54.28512 11.30233 21972 ft 416 kts 46°
2026-05-07 17:41 54.30474 11.33912 22354 ft 418 kts 47°
2026-05-07 17:41 54.32444 11.37615 22696 ft 421 kts 47°
2026-05-07 17:41 54.34418 11.41334 23056 ft 423 kts 47°
2026-05-07 17:41 54.36401 11.45077 23397 ft 425 kts 47°
2026-05-07 17:42 54.38376 11.48812 23738 ft 427 kts 47°
2026-05-07 17:42 54.40381 11.52602 24023 ft 429 kts 47°
2026-05-07 17:42 54.42393 11.56407 24327 ft 431 kts 47°
2026-05-07 17:42 54.44416 11.60235 24634 ft 433 kts 47°
2026-05-07 17:43 54.46437 11.64072 24972 ft 433 kts 47°
2026-05-07 17:43 54.48452 11.67908 25343 ft 432 kts 47°
2026-05-07 17:43 54.50472 11.71743 25673 ft 433 kts 47°
2026-05-07 17:43 54.52506 11.75602 25974 ft 434 kts 47°
2026-05-07 17:44 54.54536 11.79457 26286 ft 435 kts 47°
2026-05-07 17:44 54.56545 11.83283 26554 ft 436 kts 47°
2026-05-07 17:44 54.58581 11.87172 26817 ft 436 kts 47°
2026-05-07 17:44 54.60621 11.91076 27042 ft 438 kts 47°
2026-05-07 17:45 54.62690 11.94993 27127 ft 442 kts 46°
2026-05-07 17:45 54.64817 11.98765 27128 ft 443 kts 44°
2026-05-07 17:45 54.67034 12.02484 27131 ft 443 kts 43°
2026-05-07 17:45 54.69267 12.06127 27132 ft 440 kts 43°
2026-05-07 17:46 54.71498 12.09749 27130 ft 438 kts 43°
2026-05-07 17:46 54.73717 12.13386 27130 ft 438 kts 43°
2026-05-07 17:46 54.75912 12.17046 27130 ft 438 kts 44°
2026-05-07 17:46 54.78094 12.20737 27130 ft 438 kts 44°
2026-05-07 17:47 54.80241 12.24403 27136 ft 438 kts 44°
2026-05-07 17:47 54.82416 12.28125 27348 ft 440 kts 44°
2026-05-07 17:47 54.84603 12.31871 27665 ft 441 kts 44°
2026-05-07 17:47 54.86797 12.35631 27952 ft 443 kts 44°
2026-05-07 17:48 54.88996 12.39394 28240 ft 444 kts 44°
2026-05-07 17:48 54.91202 12.43164 28586 ft 444 kts 44°
2026-05-07 17:48 54.93406 12.46929 28878 ft 444 kts 44°
2026-05-07 17:48 54.95593 12.50673 29135 ft 446 kts 44°
2026-05-07 17:49 54.97805 12.54480 29384 ft 447 kts 44°
2026-05-07 17:49 55.00026 12.58315 29614 ft 448 kts 44°
2026-05-07 17:49 55.02217 12.62104 29833 ft 449 kts 44°
2026-05-07 17:49 55.04436 12.65942 30109 ft 449 kts 44°
2026-05-07 17:50 55.06655 12.69785 30377 ft 448 kts 44°
2026-05-07 17:50 55.08873 12.73632 30599 ft 449 kts 45°
2026-05-07 17:50 55.11085 12.77473 30827 ft 448 kts 45°
2026-05-07 17:50 55.13290 12.81311 31103 ft 446 kts 44°
2026-05-07 17:51 55.15486 12.85137 31382 ft 445 kts 44°
2026-05-07 17:51 55.17680 12.88964 31648 ft 444 kts 45°
2026-05-07 17:51 55.19837 12.92736 31901 ft 443 kts 45°
2026-05-07 17:51 55.22010 12.96548 32158 ft 442 kts 45°
2026-05-07 17:52 55.24176 13.00357 32410 ft 441 kts 45°
2026-05-07 17:52 55.26341 13.04171 32638 ft 440 kts 45°
2026-05-07 17:52 55.28498 13.07969 32898 ft 439 kts 45°
2026-05-07 17:52 55.30655 13.11768 33141 ft 438 kts 45°
2026-05-07 17:53 55.32798 13.15552 33364 ft 437 kts 45°
2026-05-07 17:53 55.34943 13.19346 33605 ft 436 kts 45°
2026-05-07 17:53 55.37083 13.23134 33840 ft 435 kts 45°
2026-05-07 17:53 55.39214 13.26909 34066 ft 434 kts 45°
2026-05-07 17:54 55.41316 13.30640 34269 ft 434 kts 45°
2026-05-07 17:54 55.43443 13.34431 34403 ft 435 kts 45°
2026-05-07 17:54 55.45567 13.38227 34532 ft 435 kts 45°
2026-05-07 17:54 55.47700 13.42042 34660 ft 436 kts 45°
2026-05-07 17:55 55.49833 13.45859 34782 ft 437 kts 45°
2026-05-07 17:55 55.51979 13.49707 34909 ft 439 kts 45°
2026-05-07 17:55 55.54118 13.53550 35058 ft 439 kts 45°
2026-05-07 17:55 55.56270 13.57420 35122 ft 441 kts 45°
2026-05-07 17:56 55.60544 13.65120 35128 ft 440 kts 45°
2026-05-07 17:56 55.64834 13.72872 35125 ft 440 kts 45°
2026-05-07 17:57 55.68390 13.79328 35125 ft 440 kts 45°
2026-05-07 17:57 55.73383 13.88437 35125 ft 440 kts 45°
2026-05-07 17:58 55.77632 13.96206 35128 ft 441 kts 45°
2026-05-07 17:58 55.81900 14.04053 35128 ft 441 kts 45°
2026-05-07 17:59 55.86162 14.11930 35116 ft 442 kts 45°
2026-05-07 17:59 55.90426 14.19823 35125 ft 442 kts 45°
2026-05-07 18:00 55.94680 14.27752 35127 ft 442 kts 45°
2026-05-07 18:00 55.98907 14.35661 35126 ft 443 kts 45°
2026-05-07 18:01 56.03173 14.43640 35129 ft 444 kts 45°
2026-05-07 18:01 56.07439 14.51662 35138 ft 445 kts 45°
2026-05-07 18:02 56.13814 14.63707 35144 ft 445 kts 45°
2026-05-07 18:03 56.18080 14.71794 35147 ft 446 kts 45°
2026-05-07 18:03 56.22340 14.79906 35157 ft 446 kts 45°
2026-05-07 18:04 56.26573 14.87987 35149 ft 447 kts 45°
2026-05-07 18:04 56.30838 14.96163 35153 ft 447 kts 45°
2026-05-07 18:05 56.35082 15.04316 35156 ft 447 kts 45°
2026-05-07 18:05 56.39359 15.12566 35153 ft 448 kts 46°
2026-05-07 18:06 56.43568 15.20723 35148 ft 448 kts 46°
2026-05-07 18:06 56.47831 15.29006 35153 ft 449 kts 46°
2026-05-07 18:07 56.52090 15.37318 35152 ft 450 kts 46°
2026-05-07 18:07 56.56346 15.45645 35152 ft 450 kts 46°
2026-05-07 18:08 56.60606 15.54025 35150 ft 451 kts 46°
2026-05-07 18:08 56.64835 15.62371 35153 ft 451 kts 46°
2026-05-07 18:09 56.69084 15.70770 35154 ft 451 kts 46°
2026-05-07 18:09 56.73335 15.79211 35150 ft 452 kts 46°
2026-05-07 18:10 56.77591 15.87667 35155 ft 452 kts 46°
2026-05-07 18:10 56.81817 15.96107 35156 ft 452 kts 46°
2026-05-07 18:11 56.86066 16.04638 35149 ft 453 kts 46°
2026-05-07 18:11 56.90307 16.13192 35156 ft 454 kts 46°
2026-05-07 18:12 56.94530 16.21728 35156 ft 455 kts 46°
2026-05-07 18:12 56.98772 16.30356 35160 ft 455 kts 46°
2026-05-07 18:13 57.03014 16.38990 35163 ft 455 kts 46°
2026-05-07 18:13 57.07256 16.47643 35167 ft 456 kts 46°
2026-05-07 18:14 57.11493 16.56337 35181 ft 456 kts 46°
2026-05-07 18:14 57.15024 16.63596 35173 ft 457 kts 46°
2026-05-07 18:15 57.19258 16.72352 35173 ft 457 kts 46°
2026-05-07 18:15 57.23484 16.81128 35172 ft 457 kts 46°
2026-05-07 18:16 57.27707 16.89926 35162 ft 458 kts 46°
2026-05-07 18:16 57.31913 16.98690 35163 ft 458 kts 46°
2026-05-07 18:17 57.36141 17.07548 35172 ft 459 kts 46°
2026-05-07 18:17 57.40384 17.16482 35167 ft 460 kts 46°
2026-05-07 18:18 57.44595 17.25372 35162 ft 461 kts 46°
2026-05-07 18:18 57.48827 17.34340 35163 ft 461 kts 46°
2026-05-07 18:19 57.53045 17.43335 35165 ft 461 kts 46°
2026-05-07 18:19 57.57261 17.52348 35168 ft 461 kts 46°
2026-05-07 18:20 57.61451 17.61333 35168 ft 462 kts 47°
2026-05-07 18:20 57.65659 17.70403 35170 ft 462 kts 47°
2026-05-07 18:21 57.69848 17.79479 35137 ft 460 kts 47°
2026-05-07 18:21 57.74026 17.88549 35150 ft 460 kts 47°
2026-05-07 18:22 57.78189 17.97598 35143 ft 462 kts 46°
2026-05-07 18:22 57.82386 18.06757 35146 ft 463 kts 46°
2026-05-07 18:23 57.86579 18.15970 35150 ft 463 kts 47°
2026-05-07 18:23 57.90757 18.25198 35154 ft 464 kts 47°
2026-05-07 18:24 57.94942 18.34449 35170 ft 464 kts 47°
2026-05-07 18:24 57.99099 18.43685 35187 ft 464 kts 46°
2026-05-07 18:25 58.03271 18.53010 35176 ft 465 kts 46°
2026-05-07 18:25 58.07449 18.62377 35174 ft 466 kts 46°
2026-05-07 18:26 58.11609 18.71712 35180 ft 466 kts 46°
2026-05-07 18:26 58.15794 18.81137 35175 ft 467 kts 47°
2026-05-07 18:27 58.19972 18.90602 35214 ft 467 kts 46°
2026-05-07 18:27 58.24135 19.00088 35192 ft 469 kts 47°
2026-05-07 18:28 58.28310 19.09618 35187 ft 470 kts 47°
2026-05-07 18:28 58.32468 19.19147 35180 ft 470 kts 47°
2026-05-07 18:29 58.36647 19.28782 35178 ft 471 kts 47°
2026-05-07 18:29 58.40812 19.38426 35183 ft 471 kts 47°
2026-05-07 18:30 58.44960 19.48058 35196 ft 472 kts 47°
2026-05-07 18:30 58.49140 19.57785 35184 ft 473 kts 47°
2026-05-07 18:31 58.53318 19.67543 35185 ft 474 kts 47°
2026-05-07 18:31 58.57455 19.77289 35177 ft 474 kts 48°
2026-05-07 18:32 58.61624 19.87167 35171 ft 475 kts 47°
2026-05-07 18:32 58.65796 19.97053 35185 ft 477 kts 47°
2026-05-07 18:33 58.69971 20.06978 35166 ft 479 kts 47°
2026-05-07 18:33 58.74160 20.16994 35167 ft 480 kts 47°
2026-05-07 18:34 58.78336 20.27036 35171 ft 480 kts 47°
2026-05-07 18:34 58.82487 20.37073 35177 ft 481 kts 48°
2026-05-07 18:35 58.86668 20.47194 35189 ft 482 kts 47°
2026-05-07 18:35 58.90854 20.57355 35185 ft 483 kts 47°
2026-05-07 18:36 58.95003 20.67498 35184 ft 483 kts 48°
2026-05-07 18:36 58.99172 20.77742 35187 ft 483 kts 48°
2026-05-07 18:37 59.03344 20.88021 35170 ft 484 kts 48°
2026-05-07 18:37 59.07098 20.98866 35203 ft 487 kts 55°
2026-05-07 18:38 59.10641 21.10141 35188 ft 489 kts 55°
2026-05-07 18:38 59.14192 21.21462 35182 ft 489 kts 56°
2026-05-07 18:39 59.17716 21.32755 35172 ft 490 kts 56°
2026-05-07 18:39 59.21218 21.44216 35181 ft 491 kts 57°
2026-05-07 18:40 59.24541 21.55808 35181 ft 491 kts 58°
2026-05-07 18:40 59.27858 21.67546 35164 ft 492 kts 58°
2026-05-07 18:41 59.31195 21.79176 35144 ft 493 kts 58°
2026-05-07 18:41 59.34568 21.90886 35153 ft 494 kts 58°
2026-05-07 18:42 59.37938 22.02657 35158 ft 494 kts 58°
2026-05-07 18:42 59.41283 22.14469 35166 ft 495 kts 58°
2026-05-07 18:43 59.44599 22.26238 35186 ft 497 kts 58°
2026-05-07 18:43 59.47927 22.38126 34581 ft 494 kts 58°
2026-05-07 18:43 59.49577 22.44051 33931 ft 494 kts 58°
2026-05-07 18:44 59.51224 22.49967 33357 ft 490 kts 58°
2026-05-07 18:44 59.52855 22.55836 32831 ft 487 kts 58°
2026-05-07 18:44 59.54473 22.61683 32333 ft 483 kts 58°
2026-05-07 18:44 59.56073 22.67477 31800 ft 479 kts 58°
2026-05-07 18:45 59.57666 22.73248 31241 ft 476 kts 59°
2026-05-07 18:45 59.59246 22.78983 30706 ft 473 kts 59°
2026-05-07 18:45 59.60813 22.84688 30190 ft 470 kts 59°
2026-05-07 18:45 59.62344 22.90274 29602 ft 467 kts 59°
2026-05-07 18:46 59.63878 22.95901 29035 ft 463 kts 59°
2026-05-07 18:46 59.65398 23.01489 28490 ft 460 kts 59°
2026-05-07 18:46 59.66908 23.07047 27949 ft 456 kts 58°
2026-05-07 18:46 59.68399 23.12549 27419 ft 452 kts 58°
2026-05-07 18:47 59.69884 23.18044 26901 ft 449 kts 58°
2026-05-07 18:47 59.71343 23.23460 26397 ft 445 kts 58°
2026-05-07 18:47 59.72797 23.28864 25900 ft 442 kts 58°
2026-05-07 18:47 59.74242 23.34248 25410 ft 439 kts 58°
2026-05-07 18:48 59.75672 23.39589 24943 ft 436 kts 58°
2026-05-07 18:48 59.77073 23.44828 24482 ft 433 kts 58°
2026-05-07 18:48 59.78475 23.50090 24016 ft 430 kts 58°
2026-05-07 18:48 59.79869 23.55351 23535 ft 427 kts 58°
2026-05-07 18:49 59.81249 23.60559 22993 ft 426 kts 58°
2026-05-07 18:49 59.82624 23.65757 22486 ft 423 kts 58°
2026-05-07 18:49 59.83981 23.70906 21959 ft 419 kts 59°
2026-05-07 18:49 59.85343 23.76006 21490 ft 414 kts 57°
2026-05-07 18:50 59.86751 23.80778 21023 ft 409 kts 54°
2026-05-07 18:50 59.88266 23.85532 20547 ft 404 kts 52°
2026-05-07 18:50 59.89810 23.90202 20067 ft 400 kts 52°
2026-05-07 18:50 59.91320 23.94743 19612 ft 396 kts 52°
2026-05-07 18:51 59.92829 23.99338 19156 ft 393 kts 52°
2026-05-07 18:51 59.94299 24.03902 18716 ft 390 kts 53°
2026-05-07 18:51 59.95745 24.08465 18265 ft 386 kts 53°
2026-05-07 18:51 59.97163 24.12984 17779 ft 382 kts 54°
2026-05-07 18:52 59.98567 24.17477 17301 ft 378 kts 54°
2026-05-07 18:52 59.99954 24.21922 16862 ft 374 kts 54°
2026-05-07 18:52 60.01330 24.26323 16344 ft 372 kts 54°
2026-05-07 18:52 60.02691 24.30691 15873 ft 369 kts 54°
2026-05-07 18:53 60.04024 24.34969 15432 ft 365 kts 54°
2026-05-07 18:53 60.05375 24.39314 14985 ft 361 kts 54°
2026-05-07 18:53 60.05797 24.40671 14858 ft 360 kts 54°
2026-05-07 18:53 60.06399 24.42611 14646 ft 358 kts 54°
2026-05-07 18:54 60.07707 24.46829 14207 ft 354 kts 54°
2026-05-07 18:54 60.09001 24.51005 13753 ft 351 kts 54°
2026-05-07 18:54 60.10286 24.55158 13274 ft 347 kts 54°
2026-05-07 18:54 60.11547 24.59245 12798 ft 343 kts 54°
2026-05-07 18:55 60.12792 24.63293 12333 ft 339 kts 55°
2026-05-07 18:55 60.14024 24.67303 11915 ft 335 kts 55°
2026-05-07 18:55 60.15238 24.71248 11487 ft 331 kts 55°
2026-05-07 18:55 60.16426 24.75112 11061 ft 327 kts 56°
2026-05-07 18:56 60.17618 24.78998 10643 ft 323 kts 56°
2026-05-07 18:56 60.18786 24.82818 10252 ft 320 kts 56°
2026-05-07 18:56 60.19940 24.86610 9881 ft 315 kts 57°
2026-05-07 18:56 60.21074 24.90344 9446 ft 310 kts 57°
2026-05-07 18:57 60.22192 24.94035 9001 ft 307 kts 57°
2026-05-07 18:57 60.23285 24.97652 8610 ft 304 kts 57°
2026-05-07 18:57 60.24395 25.01324 8270 ft 301 kts 57°
2026-05-07 18:57 60.25561 25.04805 8006 ft 298 kts 47°
2026-05-07 18:58 60.26538 25.06725 7827 ft 295 kts 37°
2026-05-07 18:58 60.28271 25.08850 7571 ft 290 kts 21°
2026-05-07 18:58 60.30817 25.10345 7227 ft 287 kts 12°
2026-05-07 18:58 60.32114 25.10984 7049 ft 286 kts 12°
2026-05-07 18:59 60.34051 25.11805 6800 ft 282 kts
2026-05-07 18:59 60.35960 25.11638 6622 ft 270 kts 348°
2026-05-07 18:59 60.37708 25.10474 6433 ft 261 kts 334°
2026-05-07 18:59 60.39322 25.08835 6070 ft 258 kts 333°
2026-05-07 19:00 60.40926 25.07195 5695 ft 256 kts 333°
2026-05-07 19:00 60.42489 25.05594 5324 ft 254 kts 333°
2026-05-07 19:00 60.44052 25.03989 5117 ft 246 kts 333°
2026-05-07 19:00 60.45537 25.02457 4984 ft 235 kts 333°
2026-05-07 19:01 60.46973 25.00983 4833 ft 225 kts 334°
2026-05-07 19:01 60.48363 24.99567 4501 ft 223 kts 334°
2026-05-07 19:01 60.49745 24.98166 4173 ft 221 kts 334°
2026-05-07 19:01 60.51107 24.96750 3876 ft 219 kts 329°
2026-05-07 19:02 60.52182 24.94598 3618 ft 220 kts 302°
2026-05-07 19:02 60.52641 24.91658 3318 ft 221 kts 277°
2026-05-07 19:02 60.52560 24.88507 3043 ft 227 kts 259°
2026-05-07 19:02 60.51905 24.85609 2810 ft 233 kts 239°
2026-05-07 19:03 60.50924 24.82970 2533 ft 234 kts 235°
2026-05-07 19:03 60.49894 24.80432 2263 ft 233 kts 227°
2026-05-07 19:03 60.48459 24.79003 2056 ft 237 kts 186°
2026-05-07 19:03 60.46868 24.79744 2028 ft 239 kts 152°
2026-05-07 19:04 60.45510 24.81688 2032 ft 239 kts 132°
2026-05-07 19:04 60.44432 24.84255 2032 ft 240 kts 134°
2026-05-07 19:04 60.43090 24.86238 2036 ft 238 kts 152°
2026-05-07 19:04 60.41655 24.87631 2015 ft 220 kts 154°
2026-05-07 19:05 60.40310 24.88974 1733 ft 215 kts 153°
2026-05-07 19:05 60.38992 24.90316 1435 ft 208 kts 153°
2026-05-07 19:05 60.37727 24.91614 1180 ft 197 kts 153°
2026-05-07 19:05 60.36567 24.92797 1003 ft 174 kts 154°
2026-05-07 19:06 60.35534 24.93861 781 ft 161 kts 154°
2026-05-07 19:06 60.33651 24.95813 360 ft 146 kts 154°
2026-05-07 19:06 60.32751 24.96735 182 ft 140 kts 155°
2026-05-07 19:07 60.31994 24.97511 153 ft 99 kts 153°
2026-05-07 19:07 60.31573 24.97945 153 ft 36 kts 153°
2026-05-07 19:07 60.31434 24.97928 155 ft 4 kts 229°
2026-05-07 19:07 60.31431 24.97919 155 ft 0 kts 232°
2026-05-07 19:08 60.31420 24.97882 155 ft 4 kts 240°
2026-05-07 19:08 60.31417 24.97870 155 ft 2 kts 241°
2026-05-07 19:08 60.31412 24.97838 155 ft 3 kts 258°
2026-05-07 19:08 60.31402 24.97799 156 ft 3 kts 237°
2026-05-07 19:09 60.31392 24.97764 157 ft 3 kts 238°
2026-05-07 19:09 60.31380 24.97710 158 ft 4 kts 259°
2026-05-07 19:09 60.31388 24.97661 159 ft 5 kts 305°
2026-05-07 19:09 60.31433 24.97605 160 ft 9 kts 332°
2026-05-07 19:10 60.31491 24.97541 160 ft 10 kts 330°
2026-05-07 19:10 60.31549 24.97478 162 ft 8 kts 332°
2026-05-07 19:10 60.31576 24.97433 165 ft 2 kts 291°
2026-05-07 19:10 60.31576 24.97425 165 ft 1 kts 277°
2026-05-07 19:11 60.31573 24.97398 166 ft 2 kts 255°
2026-05-07 19:11 60.31565 24.97360 166 ft 4 kts 245°
2026-05-07 19:11 60.31559 24.97336 166 ft 2 kts 244°
2026-05-07 19:11 60.31558 24.97331 166 ft 0 kts 244°